sat.trackr.live / text

‹ back to catalog

STARLINK-35964

NORAD 66796 · 2025-278F

PAYLOAD ACTIVE UNKNOWN

§ Identity

Operator
Country
US
Launch date
2025-12-01
Launch site
AFETR
Launch vehicle
Mass (kg)
RCS (m²)

Purposes: comms

External: N2YO · Heavens-Above · Gunter

§ Orbital elements

Epoch: 2026-09-19T22:16:32.256768Z

Period
94.27 min
Inclination
42.9987°
Eccentricity
0.0001881
Mean motion
15.27603020 rev/d
Perigee alt
481.7 km
Apogee alt
484.3 km
Semi-major
6,861.1 km
B*
6.6451e-4
RAAN
82.5136°
Arg perigee
273.0658°
Mean anomaly
86.9978°
Rev number
4,508

§ Raw data

STARLINK-359641 66796U 25278F   26262.92815112  .00018082  00000+0  66451-3 0  99982 66796  42.9987  82.5136 0001881 273.0658  86.9978 15.27603020 45089

JSON: /api/v1/satellites/66796 · /tle

For live sub-satellite position, see the globe view (requires WebGL).

§ Visibility from observer

Set your observer location to see the next 7 days of passes ≥ 10°. The values pass through the URL so the page stays shareable.

No JS? Fill the form by hand. The geolocation button needs JavaScript.